Other Surface Observations
Issued by NWS

Home | Current Version | Previous Version | Text Only | Print | Product List | Glossary On
Versions: 1 2 3 4 5 6 7 8 9 10 11 12 13 14 15 16 17 18 19 20 21 22 23 24 25 26 27 28 29 30 31 32 33 34 35 36 37 38 39 40 41 42 43 44 45 46 47 48 49 50
000
SXUS52 KTAE 302018
OSOTAE
OSOTAE
North Florida/South Alabama/Southwest Georgia Weather Roundup
National Weather Service Tallahassee Florida
300 PM EST FRI JAN 30 2015

Note: "fair" indicates few or no clouds below 12,000 feet with no
significant weather and/or obstructions to visibility.

!FLZ017-115-028-034-025-302100
...North Florida...

CITY           SKY/WX    TMP DP  RH WIND       PRES   REMARKS
TALLAHASSEE    PTSUNNY   64  28  25 N12G17    30.21F
APALACHICOLA   PTSUNNY   64  35  34 N7        30.22F
PERRY          SUNNY     65  29  26 N10G16    30.20R
CROSS CITY       N/A     69  37  30 N12       30.17S
JACKSONVILLE   MOSUNNY   65  29  25 N15       30.15S
$$

!FLZ112-006-005-002-011-302100
...Florida Panhandle...

CITY           SKY/WX    TMP DP  RH WIND       PRES   REMARKS
MARIANNA       SUNNY     61  28  28 N10       30.25F
BONIFAY        FAIR      61  30  31 N13       30.26F
PANAMA CITY NW FAIR      62  31  31 N13G21    30.23F
TYNDALL AFB    MOSUNNY   62  32  31 NE9       30.23F
TYND DRONE APT FAIR      63  33  32 N12       30.21F
DE FUNIAK SPR  FAIR      60  29  31 N9        30.26F
EGLIN AFB      MOSUNNY   63  28  26 N15       30.25F
DESTIN         MOSUNNY   63  33  32 N10       30.25F
HURLBURT       MOSUNNY   63  26  25 N14       30.24F
CRESTVIEW      SUNNY     62  29  28 NE9       30.28F
PENSACOLA      PTSUNNY   61  30  31 N9        30.27F
$$

!ALZ063-066-302100
...South Alabama...

CITY           SKY/WX    TMP DP  RH WIND       PRES   REMARKS
DOTHAN         SUNNY     60  29  30 N12       30.29F
OZARK CAIRNS   SUNNY     60  26  28 NW15      30.26F
FT RUCKER HELI SUNNY     59  27  29 N10G21    30.25F
RUCKER HELI 3  FAIR      59  28  30 NW8G23    30.29F
RUCKER HELI 2  FAIR      59  27  29 NW13G21   30.26F
FLORALA APT    SUNNY     61  28  28 VRB7      30.28F
ANDALUSIA      SUNNY     64  28  25 N15       30.28F
TROY           SUNNY     58  26  29 NW9       30.29F
EUFALA         FAIR      60  26  27 VRB6      30.26F
MOBILE         PTSUNNY   58  29  33 N14       30.30F
$$

!GAZ120>161-302100
...Southwest and South Central Georgia...

CITY           SKY/WX    TMP DP  RH WIND       PRES   REMARKS
THOMASVILLE    FAIR      61  30  31 N8        30.23F
BAINBRIDGE     SUNNY     63  32  31 NW8       30.25F
MOODY AFB      SUNNY     60  30  32 NW12G23   30.20S
VALDOSTA       SUNNY     61  31  32 VRB6      30.21S
MOULTRIE       SUNNY     57  32  38 N6        30.23S
BLAKELY        SUNNY     59  32  36 N10       30.26F
ALBANY         SUNNY     59  27  29 N10G18    30.26S
TIFTON         FAIR      55  28  35 N9G17     30.21F
FITZGERALD     FAIR      59  24  25 NW12G17   30.23S
CORDELE        FAIR      59  24  26 N13       30.24S
AMERICUS       FAIR      55  27  33 N13       30.25S
HOMERVILLE     FAIR      61  34  36 NW9G16    30.19F
$$

!GMZ750-755-770-775-302100
...Coastal and Buoy Obs...

STATION/POSITION TIME  TEMP    WIND        PRES    VSBY  WAVE
                       AIR SEA DIR/SP/G                  HT/PER
                 (UTC) (F)     (DEG/KT/KT) (MB)    (MI)  (FT/S)
KEATON BEACH     2000   64      10/  9/ 13 1022.2F
CEDAR KEY        2000   62     310/  7/ 10 1021.6F
C TOWER          2000   58     360/ 12/ 13 1023.0F
APALACHICOLA BUO 2000   62 67   10/ 17/ 21 1022.4F         4/ 5
PANAMA CITY BUOY 1852   59 69   10/ 17/ 21 1023.8F         6/ 7
MOBILE BUOY      1932   54 69   20/ 17/ 21 1026.0F         6/ 6
ORANGE BCH AL BU 2000   55 62  360/  8/ 12 1024.8F         2/ 4
$$



USA.gov is the U.S. government's official web portal to all federal, state and local government web resources and services.